WADD Airport Information

Runway Information
Runway 09 Length 9790 ft width 148 ft
Elevation 11 ft Threshold 0 ft Heading 88
Runway 27 Length 9790 ft Width 148 ft
Elevation 12 ft Threshold 0 ft Heading 268
Airport Frequencies
Type APP Name DIRECTOR Frequency 119.7 MHZ
Type ATIS Name ATIS Frequency 126.2 MHZ
Type GND Name NGURAH GND Frequency 118.8 MHZ
Type INFO Name INFO Frequency 8.88 MHZ
Type TMA Name RADAR Frequency 119.3 MHZ
Type TWR Name NGURAH TWR Frequency 118.1 MHZ
Airport Navaids
Type VOR-DME Name Bali Frequency 116200 KHZ
Type NDB Name Bali Frequency 230 KHZ
Airport Weather Information & NOTAM

Deprecated: The each() function is deprecated. This message will be suppressed on further calls in /home/jyhjkdzw/public_html/lib/functions.php on line 130
ADDS - METARS form results

(1554 UTC 17 May 2021)
Data provider http://aviationweather.gov/metar/data/
 
Forecast for: WADD (BALI INTL , ID)
Text: TAF WADD 171100Z 1712/1812 11012KT 9999 SCT016
Forecast period: 1200 UTC 17 May 2021 to 1200 UTC 18 May 2021
Forecast type: FROM: standard forecast or significant change
Winds: from the ESE (110 degrees) at 14 MPH (12 knots; 6.2 m/s)
Visibility: 6 or more miles (10+ km)
Ceiling: at least 12,000 feet AGL
Clouds: scattered clouds at 1600 feet AGL
Weather: no significant weather forecast for this period